Time,TemperatureF,DewpointF,PressureIn,WindDirection,WindDirectionDegrees,WindSpeedMPH,WindSpeedGustMPH,Humidity,HourlyPrecipIn,Conditions,Clouds,dailyrainin,SoftwareType,DateUTC
2013-01-13 00:00:00,57.1,54.7,29.96,SW,225,0.0,0.0,92,0.00,,,0.01,WUHU216HW,2013-01-13 05:00:00,
2013-01-13 00:03:00,57.1,54.7,29.96,SW,225,0.2,0.2,92,0.00,,,0.00,WUHU216HW,2013-01-13 05:03:00,
2013-01-13 00:08:00,56.9,54.5,29.96,SW,225,0.0,0.2,92,0.00,,,0.00,WUHU216HW,2013-01-13 05:08:00,
2013-01-13 00:13:00,56.9,54.5,29.96,SW,225,0.0,0.0,92,0.00,,,0.00,WUHU216HW,2013-01-13 05:13:00,
2013-01-13 00:18:00,56.7,54.4,29.96,SW,225,0.0,0.0,92,0.00,,,0.00,WUHU216HW,2013-01-13 05:18:00,
2013-01-13 00:23:00,56.5,54.2,29.96,SW,225,0.0,0.0,92,0.00,,,0.00,WUHU216HW,2013-01-13 05:23:00,
2013-01-13 00:28:00,56.5,54.2,29.96,SW,225,0.0,0.0,92,0.00,,,0.00,WUHU216HW,2013-01-13 05:28:00,
2013-01-13 00:33:00,56.3,54.0,29.96,SW,225,0.0,0.0,92,0.00,,,0.00,WUHU216HW,2013-01-13 05:33:00,
2013-01-13 00:38:00,56.2,53.8,29.96,SW,225,0.0,0.0,92,0.00,,,0.00,WUHU216HW,2013-01-13 05:38:00,
2013-01-13 00:43:00,56.0,53.6,29.96,SW,225,0.0,0.0,92,0.00,,,0.00,WUHU216HW,2013-01-13 05:43:00,
2013-01-13 00:48:00,56.0,53.6,29.96,SW,225,0.0,0.0,92,0.00,,,0.00,WUHU216HW,2013-01-13 05:48:00,
2013-01-13 00:53:00,56.0,53.6,29.96,SW,225,0.0,0.0,92,0.00,,,0.00,WUHU216HW,2013-01-13 05:53:00,
2013-01-13 00:58:00,56.2,53.8,29.96,SW,225,0.0,0.0,92,0.00,,,0.00,WUHU216HW,2013-01-13 05:58:00,
2013-01-13 01:03:00,56.2,53.8,29.96,SW,225,0.0,0.2,92,0.00,,,0.00,WUHU216HW,2013-01-13 06:03:00,
2013-01-13 01:08:00,56.0,53.6,29.96,SW,225,0.0,0.2,92,0.00,,,0.00,WUHU216HW,2013-01-13 06:08:00,
2013-01-13 01:13:00,55.8,53.5,29.96,SW,225,0.4,0.4,92,0.00,,,0.00,WUHU216HW,2013-01-13 06:13:00,
2013-01-13 01:18:00,56.0,53.6,29.96,SSW,203,0.7,0.7,92,0.00,,,0.00,WUHU216HW,2013-01-13 06:18:00,
2013-01-13 01:23:00,56.0,53.6,29.96,SSW,203,0.0,0.7,92,0.00,,,0.00,WUHU216HW,2013-01-13 06:23:00,
2013-01-13 01:28:00,56.2,53.8,29.96,SSW,203,0.0,0.4,92,0.00,,,0.00,WUHU216HW,2013-01-13 06:28:00,
2013-01-13 01:33:00,56.0,53.6,29.96,SSW,203,0.0,0.9,92,0.00,,,0.00,WUHU216HW,2013-01-13 06:33:00,
2013-01-13 01:38:00,55.8,53.5,29.96,SSW,203,0.0,0.9,92,0.00,,,0.00,WUHU216HW,2013-01-13 06:38:00,
2013-01-13 01:43:00,55.6,53.3,29.96,SSW,203,0.2,1.1,92,0.00,,,0.00,WUHU216HW,2013-01-13 06:43:00,
2013-01-13 01:48:00,55.4,53.5,29.96,SSW,203,0.0,1.1,93,0.00,,,0.00,WUHU216HW,2013-01-13 06:48:00,
2013-01-13 01:53:00,55.1,53.1,29.96,SSW,203,0.4,0.4,93,0.00,,,0.00,WUHU216HW,2013-01-13 06:53:00,
2013-01-13 01:58:00,55.1,53.1,29.96,SSW,203,0.2,0.4,93,0.00,,,0.00,WUHU216HW,2013-01-13 06:58:00,
2013-01-13 02:03:00,55.1,53.1,29.96,SSW,203,0.0,0.4,93,0.00,,,0.00,WUHU216HW,2013-01-13 07:03:00,
2013-01-13 02:08:00,55.1,53.1,29.96,SSW,203,0.0,0.4,93,0.00,,,0.00,WUHU216HW,2013-01-13 07:08:00,
2013-01-13 02:13:00,55.3,53.3,29.96,SSW,203,0.0,0.0,93,0.00,,,0.00,WUHU216HW,2013-01-13 07:13:00,
2013-01-13 02:18:00,55.4,53.5,29.96,SSW,203,0.4,0.4,93,0.00,,,0.00,WUHU216HW,2013-01-13 07:18:00,
2013-01-13 02:23:00,55.4,53.5,29.96,SSW,203,0.0,0.4,93,0.00,,,0.00,WUHU216HW,2013-01-13 07:23:00,
2013-01-13 02:28:00,55.4,53.5,29.96,SSW,203,0.0,0.0,93,0.00,,,0.00,WUHU216HW,2013-01-13 07:28:00,
2013-01-13 02:33:00,55.1,53.1,29.96,SSW,203,0.4,0.4,93,0.00,,,0.00,WUHU216HW,2013-01-13 07:33:00,
2013-01-13 02:38:00,54.7,52.8,29.96,SSW,203,0.4,0.9,93,0.00,,,0.00,WUHU216HW,2013-01-13 07:38:00,
2013-01-13 02:43:00,54.4,52.4,29.96,SSE,158,0.2,0.9,93,0.00,,,0.00,WUHU216HW,2013-01-13 07:43:00,
2013-01-13 02:48:00,54.4,52.4,29.96,SSE,158,0.7,0.7,93,0.00,,,0.00,WUHU216HW,2013-01-13 07:48:00,
2013-01-13 02:53:00,54.2,52.2,29.96,SSE,158,0.0,0.7,93,0.00,,,0.00,WUHU216HW,2013-01-13 07:53:00,
2013-01-13 02:58:00,54.4,52.4,29.95,SSE,158,0.4,0.7,93,0.00,,,0.00,WUHU216HW,2013-01-13 07:58:00,
2013-01-13 03:03:00,54.5,52.6,29.96,SSE,158,0.0,0.7,93,0.00,,,0.00,WUHU216HW,2013-01-13 08:03:00,
2013-01-13 03:08:00,54.5,52.6,29.96,SSE,158,0.0,0.4,93,0.00,,,0.00,WUHU216HW,2013-01-13 08:08:00,
2013-01-13 03:13:00,54.5,52.8,29.96,SSE,158,0.0,0.4,94,0.00,,,0.00,WUHU216HW,2013-01-13 08:13:00,
2013-01-13 03:18:00,54.7,53.0,29.96,SSE,158,0.0,0.4,94,0.00,,,0.00,WUHU216HW,2013-01-13 08:18:00,
2013-01-13 03:23:00,54.9,53.2,29.95,SSE,158,0.0,0.0,94,0.00,,,0.00,WUHU216HW,2013-01-13 08:23:00,
2013-01-13 03:28:00,55.1,53.4,29.96,SSE,158,0.0,0.7,94,0.00,,,0.00,WUHU216HW,2013-01-13 08:28:00,
2013-01-13 03:33:00,55.3,53.6,29.96,SSW,203,0.2,0.7,94,0.00,,,0.00,WUHU216HW,2013-01-13 08:33:00,
2013-01-13 03:38:00,55.4,53.7,29.96,SSW,203,0.2,0.7,94,0.00,,,0.00,WUHU216HW,2013-01-13 08:38:00,
2013-01-13 03:43:00,55.4,53.7,29.96,SSW,203,0.0,0.7,94,0.00,,,0.00,WUHU216HW,2013-01-13 08:43:00,
2013-01-13 03:48:00,55.6,53.9,29.95,SSW,203,0.0,0.2,94,0.00,,,0.00,WUHU216HW,2013-01-13 08:48:00,
2013-01-13 03:53:00,55.8,54.1,29.95,SSW,203,0.2,0.2,94,0.00,,,0.00,WUHU216HW,2013-01-13 08:53:00,
2013-01-13 03:58:00,55.8,54.1,29.95,SSW,203,0.2,0.2,94,0.00,,,0.00,WUHU216HW,2013-01-13 08:58:00,
2013-01-13 04:03:00,55.8,54.1,29.95,SSW,203,0.2,0.7,94,0.00,,,0.00,WUHU216HW,2013-01-13 09:03:00,
2013-01-13 04:08:00,56.0,54.3,29.95,SSW,203,0.7,0.7,94,0.00,,,0.00,WUHU216HW,2013-01-13 09:08:00,
2013-01-13 04:13:00,56.2,54.5,29.95,SSW,203,0.4,1.1,94,0.00,,,0.00,WUHU216HW,2013-01-13 09:13:00,
2013-01-13 04:18:00,56.3,54.6,29.94,SSW,203,0.4,1.1,94,0.00,,,0.00,WUHU216HW,2013-01-13 09:18:00,
2013-01-13 04:23:00,56.3,54.6,29.94,SSW,203,0.4,0.9,94,0.00,,,0.00,WUHU216HW,2013-01-13 09:23:00,
2013-01-13 04:28:00,56.3,54.6,29.94,SSW,203,0.7,1.1,94,0.00,,,0.00,WUHU216HW,2013-01-13 09:28:00,
2013-01-13 04:33:00,56.5,54.8,29.94,SSW,203,0.7,1.3,94,0.00,,,0.00,WUHU216HW,2013-01-13 09:33:00,
2013-01-13 04:38:00,56.5,54.8,29.94,SSW,203,0.2,1.3,94,0.00,,,0.00,WUHU216HW,2013-01-13 09:38:00,
2013-01-13 04:43:00,56.5,54.8,29.94,SSW,203,0.9,1.1,94,0.00,,,0.00,WUHU216HW,2013-01-13 09:43:00,
2013-01-13 04:48:00,56.5,54.8,29.94,SSW,203,0.4,1.1,94,0.00,,,0.00,WUHU216HW,2013-01-13 09:48:00,
2013-01-13 04:53:00,56.5,54.8,29.94,SSW,203,0.4,1.1,94,0.00,,,0.00,WUHU216HW,2013-01-13 09:53:00,
2013-01-13 04:58:00,56.7,55.0,29.95,South,180,0.0,1.1,94,0.00,,,0.00,WUHU216HW,2013-01-13 09:58:00,
2013-01-13 05:03:00,56.5,54.8,29.94,South,180,0.4,0.4,94,0.00,,,0.00,WUHU216HW,2013-01-13 10:03:00,
2013-01-13 05:08:00,56.5,54.8,29.95,SSW,203,0.4,0.7,94,0.00,,,0.00,WUHU216HW,2013-01-13 10:08:00,
2013-01-13 05:13:00,56.7,55.0,29.94,SSW,203,0.7,1.3,94,0.00,,,0.00,WUHU216HW,2013-01-13 10:13:00,
2013-01-13 05:18:00,56.7,55.0,29.94,SSW,203,0.0,1.3,94,0.00,,,0.00,WUHU216HW,2013-01-13 10:18:00,
2013-01-13 05:23:00,56.9,55.2,29.95,SSW,203,0.7,0.7,94,0.00,,,0.00,WUHU216HW,2013-01-13 10:23:00,
2013-01-13 05:28:00,56.9,55.2,29.95,SSW,203,0.0,0.7,94,0.00,,,0.00,WUHU216HW,2013-01-13 10:28:00,
2013-01-13 05:33:00,56.7,55.0,29.95,SSW,203,0.2,0.7,94,0.00,,,0.00,WUHU216HW,2013-01-13 10:33:00,
2013-01-13 05:38:00,56.7,55.0,29.95,SSE,158,0.2,0.9,94,0.00,,,0.00,WUHU216HW,2013-01-13 10:38:00,
2013-01-13 05:43:00,56.7,55.0,29.95,SSW,203,1.1,1.1,94,0.00,,,0.00,WUHU216HW,2013-01-13 10:43:00,
2013-01-13 05:48:00,56.7,55.0,29.95,SSW,203,0.7,1.3,94,0.00,,,0.00,WUHU216HW,2013-01-13 10:48:00,
2013-01-13 05:53:00,56.7,55.0,29.95,SSW,203,1.1,1.8,94,0.00,,,0.00,WUHU216HW,2013-01-13 10:53:00,
2013-01-13 05:58:00,56.7,55.0,29.95,SSW,203,0.4,1.8,94,0.00,,,0.00,WUHU216HW,2013-01-13 10:58:00,
2013-01-13 06:03:00,56.7,55.0,29.96,SSW,203,0.7,2.5,94,0.00,,,0.00,WUHU216HW,2013-01-13 11:03:00,
2013-01-13 06:08:00,56.5,54.8,29.96,SSW,203,1.1,2.5,94,0.00,,,0.00,WUHU216HW,2013-01-13 11:08:00,
2013-01-13 06:13:00,56.7,55.0,29.96,SSW,203,0.4,1.6,94,0.00,,,0.00,WUHU216HW,2013-01-13 11:13:00,
2013-01-13 06:18:00,56.7,55.0,29.96,SSW,203,0.4,1.1,94,0.00,,,0.00,WUHU216HW,2013-01-13 11:18:00,
2013-01-13 06:23:00,56.5,54.8,29.96,SSW,203,0.4,1.1,94,0.00,,,0.00,WUHU216HW,2013-01-13 11:23:00,
2013-01-13 06:28:00,56.7,55.0,29.96,South,180,1.1,2.0,94,0.00,,,0.00,WUHU216HW,2013-01-13 11:28:00,
2013-01-13 06:33:00,56.7,55.0,29.96,SSW,203,1.3,2.0,94,0.00,,,0.00,WUHU216HW,2013-01-13 11:33:00,
2013-01-13 06:38:00,56.7,55.0,29.96,SSW,203,0.2,1.6,94,0.00,,,0.00,WUHU216HW,2013-01-13 11:38:00,
2013-01-13 06:43:00,56.7,55.0,29.96,SSW,203,1.3,1.6,94,0.00,,,0.00,WUHU216HW,2013-01-13 11:43:00,
2013-01-13 06:48:00,56.5,54.8,29.96,SSW,203,0.0,1.3,94,0.00,,,0.00,WUHU216HW,2013-01-13 11:48:00,
2013-01-13 06:53:00,56.5,54.8,29.96,SSW,203,0.0,1.1,94,0.00,,,0.00,WUHU216HW,2013-01-13 11:53:00,
2013-01-13 06:58:00,56.2,54.5,29.96,SSW,203,0.0,1.1,94,0.00,,,0.00,WUHU216HW,2013-01-13 11:58:00,
2013-01-13 07:03:00,56.0,54.3,29.96,SSW,203,0.0,0.9,94,0.00,,,0.00,WUHU216HW,2013-01-13 12:03:00,
2013-01-13 07:08:00,55.8,54.1,29.96,SSW,203,0.7,0.9,94,0.00,,,0.00,WUHU216HW,2013-01-13 12:08:00,
2013-01-13 07:13:00,55.8,54.1,29.97,SSW,203,0.4,1.1,94,0.00,,,0.00,WUHU216HW,2013-01-13 12:13:00,
2013-01-13 07:18:00,56.0,54.3,29.97,SSW,203,0.4,2.0,94,0.00,,,0.00,WUHU216HW,2013-01-13 12:18:00,
2013-01-13 07:23:00,56.0,54.5,29.97,SSW,203,0.0,2.0,95,0.00,,,0.00,WUHU216HW,2013-01-13 12:23:00,
2013-01-13 07:28:00,55.8,54.1,29.97,SSW,203,0.2,0.2,94,0.00,,,0.00,WUHU216HW,2013-01-13 12:28:00,
2013-01-13 07:33:00,55.8,54.1,29.97,SSW,203,0.0,0.4,94,0.00,,,0.00,WUHU216HW,2013-01-13 12:33:00,
2013-01-13 07:38:00,56.0,54.5,29.97,SSW,203,1.6,1.6,95,0.00,,,0.00,WUHU216HW,2013-01-13 12:38:00,
2013-01-13 07:43:00,56.2,54.7,29.98,SW,225,1.1,1.6,95,0.00,,,0.00,WUHU216HW,2013-01-13 12:43:00,
2013-01-13 07:48:00,56.2,54.7,29.98,SW,225,1.1,1.8,95,0.00,,,0.00,WUHU216HW,2013-01-13 12:48:00,
2013-01-13 07:53:00,56.3,54.6,29.98,SW,225,1.8,2.7,94,0.00,,,0.00,WUHU216HW,2013-01-13 12:53:00,
2013-01-13 07:58:00,56.3,54.9,29.98,WSW,248,1.8,2.7,95,0.00,,,0.00,WUHU216HW,2013-01-13 12:58:00,
2013-01-13 08:03:00,56.3,54.6,29.98,SW,225,0.2,1.8,94,0.00,,,0.00,WUHU216HW,2013-01-13 13:03:00,
2013-01-13 08:08:00,56.5,55.1,29.98,SW,225,1.6,1.6,95,0.00,,,0.00,WUHU216HW,2013-01-13 13:08:00,
2013-01-13 08:13:00,56.5,55.1,29.98,SSW,203,1.3,2.5,95,0.00,,,0.00,WUHU216HW,2013-01-13 13:13:00,
2013-01-13 08:18:00,56.9,55.4,29.99,SW,225,1.1,2.5,95,0.00,,,0.00,WUHU216HW,2013-01-13 13:18:00,
2013-01-13 08:23:00,56.9,55.4,29.99,SW,225,1.3,2.0,95,0.00,,,0.00,WUHU216HW,2013-01-13 13:23:00,
2013-01-13 08:28:00,57.1,55.6,29.99,WSW,248,1.1,1.3,95,0.00,,,0.00,WUHU216HW,2013-01-13 13:28:00,
2013-01-13 08:33:00,57.1,55.6,29.99,SSW,203,1.1,1.8,95,0.00,,,0.00,WUHU216HW,2013-01-13 13:33:00,
2013-01-13 08:38:00,57.2,55.8,30.00,SSW,203,1.1,1.8,95,0.01,,,0.01,WUHU216HW,2013-01-13 13:38:00,
2013-01-13 08:43:00,57.6,56.2,30.00,SSW,203,1.8,2.7,95,0.01,,,0.01,WUHU216HW,2013-01-13 13:43:00,
2013-01-13 08:48:00,57.8,56.3,30.00,SSW,203,2.0,2.7,95,0.01,,,0.01,WUHU216HW,2013-01-13 13:48:00,
2013-01-13 08:53:00,58.0,56.5,30.00,SSW,203,1.1,3.8,95,0.01,,,0.01,WUHU216HW,2013-01-13 13:53:00,
2013-01-13 08:58:00,58.1,56.7,30.00,West,270,1.1,3.8,95,0.01,,,0.01,WUHU216HW,2013-01-13 13:58:00,
2013-01-13 09:03:00,58.5,57.1,30.00,SW,225,1.8,3.8,95,0.01,,,0.01,WUHU216HW,2013-01-13 14:03:00,
2013-01-13 09:08:00,58.7,57.2,30.01,SSW,203,1.1,3.8,95,0.01,,,0.01,WUHU216HW,2013-01-13 14:08:00,
2013-01-13 09:13:00,58.9,57.4,30.00,SSW,203,2.0,4.7,95,0.01,,,0.01,WUHU216HW,2013-01-13 14:13:00,
2013-01-13 09:18:00,59.2,57.8,30.01,SSW,203,2.0,4.7,95,0.01,,,0.01,WUHU216HW,2013-01-13 14:18:00,
2013-01-13 09:23:00,59.4,57.7,30.01,SW,225,1.8,4.0,94,0.01,,,0.01,WUHU216HW,2013-01-13 14:23:00,
2013-01-13 09:28:00,59.9,58.5,30.01,SSE,158,2.5,4.9,95,0.01,,,0.01,WUHU216HW,2013-01-13 14:28:00,
2013-01-13 09:33:00,60.3,58.9,30.01,SSE,158,3.4,4.9,95,0.01,,,0.01,WUHU216HW,2013-01-13 14:33:00,
2013-01-13 09:38:00,60.7,59.2,30.00,WSW,248,2.9,5.4,95,0.00,,,0.01,WUHU216HW,2013-01-13 14:38:00,
2013-01-13 09:43:00,60.8,59.4,30.00,SW,225,2.2,6.0,95,0.00,,,0.01,WUHU216HW,2013-01-13 14:43:00,
2013-01-13 09:48:00,61.2,59.8,30.00,SW,225,2.5,6.0,95,0.00,,,0.01,WUHU216HW,2013-01-13 14:48:00,
2013-01-13 09:53:00,61.6,60.1,30.00,SSW,203,1.8,3.6,95,0.00,,,0.01,WUHU216HW,2013-01-13 14:53:00,
2013-01-13 09:58:00,61.9,60.5,30.00,SW,225,1.1,2.5,95,0.00,,,0.01,WUHU216HW,2013-01-13 14:58:00,
2013-01-13 10:03:00,62.3,60.8,30.01,SSW,203,2.2,4.5,95,0.00,,,0.01,WUHU216HW,2013-01-13 15:03:00,
2013-01-13 10:08:00,62.8,61.1,30.01,WSW,248,2.5,5.4,94,0.00,,,0.01,WUHU216HW,2013-01-13 15:08:00,
2013-01-13 10:13:00,63.0,61.3,30.01,SSW,203,4.0,5.6,94,0.00,,,0.01,WUHU216HW,2013-01-13 15:13:00,
2013-01-13 10:18:00,63.0,61.3,30.01,SW,225,5.4,5.8,94,0.00,,,0.01,WUHU216HW,2013-01-13 15:18:00,
2013-01-13 10:23:00,63.0,61.3,30.01,WSW,248,2.7,5.8,94,0.00,,,0.01,WUHU216HW,2013-01-13 15:23:00,
2013-01-13 10:28:00,63.2,61.5,30.01,West,270,3.6,5.4,94,0.00,,,0.01,WUHU216HW,2013-01-13 15:28:00,
2013-01-13 10:33:00,63.5,61.6,30.00,SW,225,3.1,5.4,93,0.00,,,0.01,WUHU216HW,2013-01-13 15:33:00,
2013-01-13 10:38:00,63.7,61.8,30.01,SW,225,5.6,5.6,93,0.00,,,0.01,WUHU216HW,2013-01-13 15:38:00,
2013-01-13 10:43:00,63.9,61.6,30.00,WSW,248,6.0,6.0,92,0.00,,,0.01,WUHU216HW,2013-01-13 15:43:00,
2013-01-13 10:48:00,63.9,61.6,30.00,SW,225,4.3,6.0,92,0.00,,,0.01,WUHU216HW,2013-01-13 15:48:00,
2013-01-13 10:53:00,64.1,61.7,29.99,WSW,248,4.3,5.4,92,0.00,,,0.01,WUHU216HW,2013-01-13 15:53:00,
2013-01-13 10:58:00,64.4,61.6,29.99,SSW,203,6.0,6.0,90,0.00,,,0.01,WUHU216HW,2013-01-13 15:58:00,
2013-01-13 11:03:00,64.6,61.8,29.99,SW,225,6.3,6.7,90,0.00,,,0.01,WUHU216HW,2013-01-13 16:03:00,
2013-01-13 11:08:00,64.8,61.9,29.99,SSW,203,3.1,6.7,90,0.00,,,0.01,WUHU216HW,2013-01-13 16:08:00,
2013-01-13 11:13:00,65.3,62.0,29.99,SW,225,3.1,4.9,89,0.00,,,0.01,WUHU216HW,2013-01-13 16:13:00,
2013-01-13 11:18:00,65.9,62.6,29.99,SSW,203,1.6,5.4,89,0.00,,,0.01,WUHU216HW,2013-01-13 16:18:00,
2013-01-13 11:23:00,66.1,62.7,29.98,SW,225,4.0,7.6,89,0.00,,,0.01,WUHU216HW,2013-01-13 16:23:00,
2013-01-13 11:28:00,66.4,62.7,29.98,WSW,248,4.0,7.6,88,0.00,,,0.01,WUHU216HW,2013-01-13 16:28:00,
2013-01-13 11:33:00,66.6,62.6,29.98,WSW,248,4.0,7.2,87,0.00,,,0.01,WUHU216HW,2013-01-13 16:33:00,
2013-01-13 11:38:00,66.4,62.4,29.97,South,180,4.9,6.5,87,0.00,,,0.01,WUHU216HW,2013-01-13 16:38:00,
2013-01-13 11:43:00,66.4,62.1,29.97,SW,225,3.4,7.6,86,0.00,,,0.01,WUHU216HW,2013-01-13 16:43:00,
2013-01-13 11:48:00,66.4,61.7,29.97,SSW,203,9.4,9.4,85,0.00,,,0.01,WUHU216HW,2013-01-13 16:48:00,
2013-01-13 11:53:00,66.6,62.3,29.97,South,180,6.7,9.4,86,0.00,,,0.01,WUHU216HW,2013-01-13 16:53:00,
2013-01-13 11:58:00,67.0,62.7,29.97,West,270,4.7,6.7,86,0.00,,,0.01,WUHU216HW,2013-01-13 16:58:00,
2013-01-13 12:03:00,67.5,63.2,29.96,WSW,248,4.3,5.4,86,0.00,,,0.01,WUHU216HW,2013-01-13 17:03:00,
2013-01-13 12:08:00,67.7,62.6,29.96,SW,225,4.0,6.3,84,0.00,,,0.01,WUHU216HW,2013-01-13 17:08:00,
2013-01-13 12:13:00,67.7,62.4,29.96,SW,225,3.6,7.6,83,0.00,,,0.01,WUHU216HW,2013-01-13 17:13:00,
2013-01-13 12:18:00,68.2,63.2,29.96,SSW,203,2.9,7.6,84,0.00,,,0.01,WUHU216HW,2013-01-13 17:18:00,
2013-01-13 12:23:00,68.6,62.9,29.96,WSW,248,4.0,6.7,82,0.00,,,0.01,WUHU216HW,2013-01-13 17:23:00,
2013-01-13 12:28:00,68.4,62.4,29.95,SW,225,8.3,8.3,81,0.00,,,0.01,WUHU216HW,2013-01-13 17:28:00,
2013-01-13 12:33:00,68.2,62.6,29.95,SSW,203,4.7,8.3,82,0.00,,,0.01,WUHU216HW,2013-01-13 17:33:00,
2013-01-13 12:38:00,68.4,62.4,29.94,SSW,203,3.4,7.6,81,0.00,,,0.01,WUHU216HW,2013-01-13 17:38:00,
2013-01-13 12:43:00,68.8,63.1,29.94,WSW,248,2.5,7.2,82,0.00,,,0.01,WUHU216HW,2013-01-13 17:43:00,
2013-01-13 12:48:00,69.3,63.2,29.94,West,270,4.3,7.2,81,0.00,,,0.01,WUHU216HW,2013-01-13 17:48:00,
2013-01-13 12:53:00,69.8,63.4,29.94,SSE,158,5.6,5.6,80,0.00,,,0.01,WUHU216HW,2013-01-13 17:53:00,
2013-01-13 12:58:00,70.2,63.4,29.94,WSW,248,3.8,5.6,79,0.00,,,0.01,WUHU216HW,2013-01-13 17:58:00,
2013-01-13 13:03:00,70.2,63.0,29.94,SW,225,2.2,4.9,78,0.00,,,0.01,WUHU216HW,2013-01-13 18:03:00,
2013-01-13 13:08:00,70.0,63.2,29.93,SE,135,1.3,5.1,79,0.00,,,0.01,WUHU216HW,2013-01-13 18:08:00,
2013-01-13 13:13:00,69.8,63.0,29.94,SSW,203,5.4,6.7,79,0.00,,,0.01,WUHU216HW,2013-01-13 18:13:00,
2013-01-13 13:18:00,70.4,63.2,29.93,WSW,248,7.8,7.8,78,0.00,,,0.01,WUHU216HW,2013-01-13 18:18:00,
2013-01-13 13:23:00,70.6,63.4,29.93,SSW,203,6.5,7.8,78,0.00,,,0.01,WUHU216HW,2013-01-13 18:23:00,
2013-01-13 13:28:00,70.4,62.7,29.93,SSW,203,2.2,7.6,77,0.00,,,0.01,WUHU216HW,2013-01-13 18:28:00,
2013-01-13 13:33:00,70.2,63.0,29.93,ESE,113,4.0,7.6,78,0.00,,,0.01,WUHU216HW,2013-01-13 18:33:00,
2013-01-13 13:38:00,70.0,62.4,29.93,South,180,5.4,7.2,77,0.00,,,0.01,WUHU216HW,2013-01-13 18:38:00,
2013-01-13 13:43:00,69.8,62.7,29.93,SSE,158,3.1,7.2,78,0.00,,,0.01,WUHU216HW,2013-01-13 18:43:00,
2013-01-13 13:48:00,69.7,62.5,29.93,WSW,248,2.9,6.0,78,0.00,,,0.01,WUHU216HW,2013-01-13 18:48:00,
2013-01-13 13:53:00,69.8,62.7,29.93,SW,225,6.3,6.3,78,0.00,,,0.01,WUHU216HW,2013-01-13 18:53:00,
2013-01-13 13:58:00,69.8,62.2,29.93,SSE,158,6.7,8.7,77,0.00,,,0.01,WUHU216HW,2013-01-13 18:58:00,
2013-01-13 14:03:00,70.2,62.6,29.93,WSW,248,3.6,8.7,77,0.00,,,0.01,WUHU216HW,2013-01-13 19:03:00,
2013-01-13 14:08:00,70.9,62.6,29.93,SSW,203,4.9,8.9,75,0.00,,,0.01,WUHU216HW,2013-01-13 19:08:00,
2013-01-13 14:13:00,70.7,62.0,29.93,SSW,203,5.6,8.9,74,0.00,,,0.01,WUHU216HW,2013-01-13 19:13:00,
2013-01-13 14:18:00,70.2,61.8,29.93,SSW,203,2.7,8.3,75,0.00,,,0.01,WUHU216HW,2013-01-13 19:18:00,
2013-01-13 14:23:00,70.2,62.2,29.93,SW,225,2.7,8.3,76,0.00,,,0.01,WUHU216HW,2013-01-13 19:23:00,
2013-01-13 14:28:00,70.6,62.6,29.93,SSE,158,3.4,4.7,76,0.00,,,0.01,WUHU216HW,2013-01-13 19:28:00,
2013-01-13 14:33:00,70.9,62.2,29.93,SW,225,4.3,8.3,74,0.00,,,0.01,WUHU216HW,2013-01-13 19:33:00,
2013-01-13 14:38:00,70.9,62.2,29.93,SSW,203,6.3,8.3,74,0.00,,,0.01,WUHU216HW,2013-01-13 19:38:00,
2013-01-13 14:43:00,70.9,61.8,29.93,WSW,248,6.3,8.7,73,0.00,,,0.01,WUHU216HW,2013-01-13 19:43:00,
2013-01-13 14:48:00,70.4,61.7,29.93,WSW,248,5.8,8.7,74,0.00,,,0.01,WUHU216HW,2013-01-13 19:48:00,
2013-01-13 14:53:00,70.4,61.7,29.93,SSW,203,9.2,9.2,74,0.00,,,0.01,WUHU216HW,2013-01-13 19:53:00,
2013-01-13 14:58:00,70.7,62.0,29.93,WSW,248,4.7,9.2,74,0.00,,,0.01,WUHU216HW,2013-01-13 19:58:00,
2013-01-13 15:03:00,70.9,61.8,29.94,SW,225,8.7,8.7,73,0.00,,,0.01,WUHU216HW,2013-01-13 20:03:00,
2013-01-13 15:08:00,70.7,62.0,29.94,WSW,248,3.6,8.7,74,0.00,,,0.01,WUHU216HW,2013-01-13 20:08:00,
2013-01-13 15:13:00,70.6,61.8,29.94,WSW,248,4.5,7.8,74,0.00,,,0.01,WUHU216HW,2013-01-13 20:13:00,
2013-01-13 15:18:00,70.4,61.7,29.94,WSW,248,4.7,7.2,74,0.00,,,0.01,WUHU216HW,2013-01-13 20:18:00,
2013-01-13 15:23:00,70.4,61.7,29.94,SSW,203,2.7,5.4,74,0.00,,,0.01,WUHU216HW,2013-01-13 20:23:00,
2013-01-13 15:28:00,70.6,61.8,29.94,SSW,203,2.5,4.5,74,0.00,,,0.01,WUHU216HW,2013-01-13 20:28:00,
2013-01-13 15:33:00,70.6,61.8,29.94,SW,225,5.4,5.4,74,0.00,,,0.01,WUHU216HW,2013-01-13 20:33:00,
2013-01-13 15:38:00,70.6,61.8,29.94,SW,225,1.8,5.8,74,0.00,,,0.01,WUHU216HW,2013-01-13 20:38:00,
2013-01-13 15:43:00,70.6,61.8,29.94,WSW,248,4.0,6.7,74,0.00,,,0.01,WUHU216HW,2013-01-13 20:43:00,
2013-01-13 15:48:00,70.2,61.5,29.94,West,270,4.0,6.7,74,0.00,,,0.01,WUHU216HW,2013-01-13 20:48:00,
2013-01-13 15:53:00,70.0,61.3,29.93,WSW,248,1.8,5.6,74,0.00,,,0.01,WUHU216HW,2013-01-13 20:53:00,
2013-01-13 15:58:00,69.8,61.5,29.94,WSW,248,2.0,5.6,75,0.00,,,0.01,WUHU216HW,2013-01-13 20:58:00,
2013-01-13 16:03:00,69.7,61.3,29.94,SSW,203,1.3,4.7,75,0.00,,,0.01,WUHU216HW,2013-01-13 21:03:00,
2013-01-13 16:08:00,69.7,61.3,29.94,WSW,248,1.8,4.7,75,0.00,,,0.01,WUHU216HW,2013-01-13 21:08:00,
2013-01-13 16:13:00,69.7,61.7,29.94,SW,225,2.5,3.4,76,0.00,,,0.01,WUHU216HW,2013-01-13 21:13:00,
2013-01-13 16:18:00,69.5,61.6,29.94,SW,225,2.5,4.5,76,0.00,,,0.01,WUHU216HW,2013-01-13 21:18:00,
2013-01-13 16:23:00,69.3,61.4,29.94,SSW,203,2.2,4.5,76,0.00,,,0.01,WUHU216HW,2013-01-13 21:23:00,
2013-01-13 16:28:00,69.1,61.2,29.94,WSW,248,1.6,3.4,76,0.00,,,0.01,WUHU216HW,2013-01-13 21:28:00,
2013-01-13 16:33:00,69.1,61.6,29.94,SW,225,2.5,3.4,77,0.00,,,0.01,WUHU216HW,2013-01-13 21:33:00,
2013-01-13 16:38:00,68.9,61.4,29.94,SW,225,2.5,4.9,77,0.00,,,0.01,WUHU216HW,2013-01-13 21:38:00,
2013-01-13 16:43:00,68.8,61.3,29.95,WSW,248,2.5,4.9,77,0.00,,,0.01,WUHU216HW,2013-01-13 21:43:00,
2013-01-13 16:48:00,68.6,61.1,29.95,SW,225,2.5,4.7,77,0.00,,,0.01,WUHU216HW,2013-01-13 21:48:00,
2013-01-13 16:53:00,68.4,60.9,29.96,SW,225,3.1,4.7,77,0.00,,,0.01,WUHU216HW,2013-01-13 21:53:00,
2013-01-13 16:58:00,68.2,61.1,29.96,SW,225,2.7,4.0,78,0.00,,,0.01,WUHU216HW,2013-01-13 21:58:00,
2013-01-13 17:03:00,68.2,61.1,29.95,WSW,248,0.9,4.0,78,0.00,,,0.01,WUHU216HW,2013-01-13 22:03:00,
2013-01-13 17:08:00,68.0,61.0,29.95,WSW,248,2.0,3.1,78,0.00,,,0.01,WUHU216HW,2013-01-13 22:08:00,
2013-01-13 17:13:00,67.9,60.9,29.95,WSW,248,2.0,3.1,78,0.00,,,0.01,WUHU216HW,2013-01-13 22:13:00,
2013-01-13 17:18:00,67.7,61.0,29.95,WNW,293,0.0,2.9,79,0.00,,,0.01,WUHU216HW,2013-01-13 22:18:00,
2013-01-13 17:23:00,67.3,60.7,29.95,WSW,248,0.4,1.8,79,0.00,,,0.01,WUHU216HW,2013-01-13 22:23:00,
2013-01-13 17:28:00,67.1,60.8,29.95,WSW,248,0.7,1.3,80,0.00,,,0.01,WUHU216HW,2013-01-13 22:28:00,
2013-01-13 17:33:00,66.8,60.5,29.95,North,0,0.2,0.7,80,0.00,,,0.01,WUHU216HW,2013-01-13 22:33:00,
2013-01-13 17:38:00,66.4,60.1,29.95,North,0,0.0,0.4,80,0.00,,,0.01,WUHU216HW,2013-01-13 22:38:00,
2013-01-13 17:43:00,66.1,60.1,29.95,North,0,0.0,0.4,81,0.00,,,0.01,WUHU216HW,2013-01-13 22:43:00,
2013-01-13 17:48:00,65.7,59.8,29.95,North,0,0.0,0.0,81,0.00,,,0.01,WUHU216HW,2013-01-13 22:48:00,
2013-01-13 17:53:00,65.3,59.7,29.95,North,0,0.0,0.2,82,0.00,,,0.01,WUHU216HW,2013-01-13 22:53:00,
2013-01-13 17:58:00,65.0,59.7,29.94,North,0,0.4,0.4,83,0.00,,,0.01,WUHU216HW,2013-01-13 22:58:00,
2013-01-13 18:03:00,64.8,59.5,29.95,North,0,0.0,0.4,83,0.00,,,0.01,WUHU216HW,2013-01-13 23:03:00,
2013-01-13 18:08:00,64.4,58.9,29.95,North,0,0.0,0.0,82,0.00,,,0.01,WUHU216HW,2013-01-13 23:08:00,
2013-01-13 18:13:00,64.1,58.8,29.94,North,0,0.0,0.0,83,0.00,,,0.01,WUHU216HW,2013-01-13 23:13:00,
2013-01-13 18:18:00,63.7,58.4,29.94,North,0,0.0,0.0,83,0.00,,,0.01,WUHU216HW,2013-01-13 23:18:00,
2013-01-13 18:23:00,63.7,58.8,29.95,North,0,0.4,0.4,84,0.00,,,0.01,WUHU216HW,2013-01-13 23:23:00,
2013-01-13 18:28:00,63.5,58.6,29.95,North,0,0.4,0.7,84,0.00,,,0.01,WUHU216HW,2013-01-13 23:28:00,
2013-01-13 18:33:00,63.2,58.6,29.95,North,0,0.4,0.7,85,0.00,,,0.01,WUHU216HW,2013-01-13 23:33:00,
2013-01-13 18:38:00,63.0,58.4,29.95,North,0,0.0,0.4,85,0.00,,,0.01,WUHU216HW,2013-01-13 23:38:00,
2013-01-13 18:43:00,62.6,58.1,29.94,North,0,0.0,0.2,85,0.00,,,0.01,WUHU216HW,2013-01-13 23:43:00,
2013-01-13 18:48:00,62.6,58.4,29.95,North,0,0.0,0.0,86,0.00,,,0.01,WUHU216HW,2013-01-13 23:48:00,
2013-01-13 18:53:00,62.5,58.2,29.95,North,0,0.7,0.7,86,0.00,,,0.01,WUHU216HW,2013-01-13 23:53:00,
2013-01-13 18:58:00,62.5,58.6,29.95,North,0,0.0,0.7,87,0.00,,,0.01,WUHU216HW,2013-01-13 23:58:00,
2013-01-13 19:03:00,62.3,58.1,29.95,North,0,0.0,0.4,86,0.00,,,0.01,WUHU216HW,2013-01-14 00:03:00,
2013-01-13 19:08:00,62.1,58.2,29.95,North,0,0.0,0.0,87,0.00,,,0.01,WUHU216HW,2013-01-14 00:08:00,
2013-01-13 19:13:00,61.9,58.1,29.94,ENE,68,0.0,1.6,87,0.00,,,0.01,WUHU216HW,2013-01-14 00:13:00,
2013-01-13 19:18:00,61.9,58.1,29.94,ENE,68,0.0,1.6,87,0.00,,,0.01,WUHU216HW,2013-01-14 00:18:00,
2013-01-13 19:23:00,61.7,57.9,29.94,ENE,68,0.4,0.4,87,0.00,,,0.01,WUHU216HW,2013-01-14 00:23:00,
2013-01-13 19:28:00,61.6,58.1,29.94,ENE,68,0.0,0.4,88,0.00,,,0.01,WUHU216HW,2013-01-14 00:28:00,
2013-01-13 19:33:00,61.4,57.5,29.94,ENE,68,0.0,0.2,87,0.00,,,0.01,WUHU216HW,2013-01-14 00:33:00,
2013-01-13 19:38:00,61.2,57.3,29.94,ENE,68,0.0,0.0,87,0.00,,,0.01,WUHU216HW,2013-01-14 00:38:00,
2013-01-13 19:43:00,60.8,57.3,29.94,ENE,68,0.0,0.4,88,0.00,,,0.01,WUHU216HW,2013-01-14 00:43:00,
2013-01-13 19:48:00,60.7,57.4,29.94,ENE,68,0.0,0.4,89,0.00,,,0.01,WUHU216HW,2013-01-14 00:48:00,
2013-01-13 19:53:00,60.5,57.2,29.94,ENE,68,0.4,0.4,89,0.00,,,0.01,WUHU216HW,2013-01-14 00:53:00,
2013-01-13 19:58:00,60.5,57.6,29.94,ENE,68,0.4,0.9,90,0.00,,,0.01,WUHU216HW,2013-01-14 00:58:00,
2013-01-13 20:03:00,60.3,57.4,29.93,ENE,68,0.0,0.9,90,0.00,,,0.01,WUHU216HW,2013-01-14 01:03:00,
2013-01-13 20:08:00,60.1,57.2,29.93,ENE,68,0.0,0.0,90,0.00,,,0.01,WUHU216HW,2013-01-14 01:08:00,
2013-01-13 20:13:00,60.1,57.2,29.93,ENE,68,0.0,0.0,90,0.00,,,0.01,WUHU216HW,2013-01-14 01:13:00,
2013-01-13 20:18:00,59.9,57.1,29.93,ENE,68,0.0,0.0,90,0.00,,,0.01,WUHU216HW,2013-01-14 01:18:00,
2013-01-13 20:23:00,59.8,56.9,29.93,ENE,68,0.2,0.2,90,0.00,,,0.01,WUHU216HW,2013-01-14 01:23:00,
2013-01-13 20:28:00,59.8,56.9,29.93,ENE,68,0.4,0.4,90,0.00,,,0.01,WUHU216HW,2013-01-14 01:28:00,
2013-01-13 20:33:00,59.4,56.5,29.93,ENE,68,0.0,0.7,90,0.00,,,0.01,WUHU216HW,2013-01-14 01:33:00,
2013-01-13 20:38:00,59.4,56.5,29.93,ENE,68,0.0,0.7,90,0.00,,,0.01,WUHU216HW,2013-01-14 01:38:00,
2013-01-13 20:43:00,59.4,56.5,29.94,ENE,68,0.7,0.7,90,0.00,,,0.01,WUHU216HW,2013-01-14 01:43:00,
2013-01-13 20:48:00,59.0,56.4,29.94,ENE,68,0.4,0.7,91,0.00,,,0.01,WUHU216HW,2013-01-14 01:48:00,
2013-01-13 20:53:00,58.9,56.3,29.93,ENE,68,0.0,0.7,91,0.00,,,0.01,WUHU216HW,2013-01-14 01:53:00,
2013-01-13 20:58:00,58.9,56.3,29.94,ENE,68,0.7,0.7,91,0.00,,,0.01,WUHU216HW,2013-01-14 01:58:00,
2013-01-13 21:03:00,58.7,55.8,29.93,ENE,68,0.0,0.9,90,0.00,,,0.01,WUHU216HW,2013-01-14 02:03:00,
2013-01-13 21:08:00,58.7,55.8,29.93,ENE,68,0.2,0.9,90,0.00,,,0.01,WUHU216HW,2013-01-14 02:08:00,
2013-01-13 21:13:00,58.7,55.8,29.93,ENE,68,0.0,0.4,90,0.00,,,0.01,WUHU216HW,2013-01-14 02:13:00,
2013-01-13 21:18:00,58.5,55.6,29.93,ENE,68,0.0,0.2,90,0.00,,,0.01,WUHU216HW,2013-01-14 02:18:00,
2013-01-13 21:23:00,58.3,55.7,29.93,ENE,68,0.0,0.0,91,0.00,,,0.01,WUHU216HW,2013-01-14 02:23:00,
2013-01-13 21:28:00,58.0,55.4,29.93,ENE,68,0.4,0.4,91,0.00,,,0.01,WUHU216HW,2013-01-14 02:28:00,
2013-01-13 21:33:00,58.0,55.4,29.93,ENE,68,0.0,0.4,91,0.00,,,0.01,WUHU216HW,2013-01-14 02:33:00,
2013-01-13 21:38:00,58.0,55.4,29.93,ENE,68,0.0,0.4,91,0.00,,,0.01,WUHU216HW,2013-01-14 02:38:00,
2013-01-13 21:43:00,57.8,55.2,29.94,ENE,68,0.0,0.0,91,0.00,,,0.01,WUHU216HW,2013-01-14 02:43:00,
2013-01-13 21:48:00,57.6,55.0,29.94,ENE,68,0.0,0.0,91,0.00,,,0.01,WUHU216HW,2013-01-14 02:48:00,
2013-01-13 21:53:00,57.6,55.0,29.94,ENE,68,0.0,0.0,91,0.00,,,0.01,WUHU216HW,2013-01-14 02:53:00,
2013-01-13 21:58:00,57.6,55.0,29.94,ENE,68,0.4,0.4,91,0.00,,,0.01,WUHU216HW,2013-01-14 02:58:00,
2013-01-13 22:03:00,57.6,55.3,29.94,ENE,68,0.0,0.4,92,0.00,,,0.01,WUHU216HW,2013-01-14 03:03:00,
2013-01-13 22:08:00,57.6,55.3,29.94,ENE,68,0.0,0.4,92,0.00,,,0.01,WUHU216HW,2013-01-14 03:08:00,
2013-01-13 22:13:00,57.8,55.4,29.94,ENE,68,0.0,0.0,92,0.00,,,0.01,WUHU216HW,2013-01-14 03:13:00,
2013-01-13 22:18:00,58.0,55.6,29.94,ENE,68,0.2,0.2,92,0.00,,,0.01,WUHU216HW,2013-01-14 03:18:00,
2013-01-13 22:23:00,58.0,55.6,29.95,South,180,0.0,0.2,92,0.00,,,0.01,WUHU216HW,2013-01-14 03:23:00,
2013-01-13 22:28:00,58.0,55.6,29.94,South,180,0.0,0.2,92,0.00,,,0.01,WUHU216HW,2013-01-14 03:28:00,
2013-01-13 22:33:00,57.8,55.4,29.94,South,180,0.4,0.4,92,0.00,,,0.01,WUHU216HW,2013-01-14 03:33:00,
2013-01-13 22:38:00,57.8,55.4,29.94,South,180,0.0,0.4,92,0.00,,,0.01,WUHU216HW,2013-01-14 03:38:00,
2013-01-13 22:43:00,57.8,55.4,29.93,East,90,1.6,1.6,92,0.00,,,0.01,WUHU216HW,2013-01-14 03:43:00,
2013-01-13 22:48:00,57.6,55.3,29.93,ENE,68,0.2,1.6,92,0.00,,,0.01,WUHU216HW,2013-01-14 03:48:00,
2013-01-13 22:53:00,57.4,55.1,29.94,ENE,68,0.0,1.1,92,0.00,,,0.01,WUHU216HW,2013-01-14 03:53:00,
2013-01-13 22:58:00,57.2,54.9,29.94,ENE,68,0.0,0.4,92,0.00,,,0.01,WUHU216HW,2013-01-14 03:58:00,
2013-01-13 23:03:00,57.2,54.9,29.94,ENE,68,0.0,0.0,92,0.00,,,0.01,WUHU216HW,2013-01-14 04:03:00,
2013-01-13 23:08:00,57.4,55.1,29.94,ENE,68,0.9,0.9,92,0.00,,,0.01,WUHU216HW,2013-01-14 04:08:00,
2013-01-13 23:13:00,57.4,55.1,29.94,NE,45,0.0,1.1,92,0.00,,,0.01,WUHU216HW,2013-01-14 04:13:00,
2013-01-13 23:18:00,57.2,54.9,29.94,NE,45,0.0,1.1,92,0.00,,,0.01,WUHU216HW,2013-01-14 04:18:00,
2013-01-13 23:23:00,57.2,54.9,29.94,NE,45,0.0,0.0,92,0.00,,,0.01,WUHU216HW,2013-01-14 04:23:00,
2013-01-13 23:28:00,57.2,54.9,29.94,ENE,68,0.0,0.0,92,0.00,,,0.01,WUHU216HW,2013-01-14 04:28:00,
2013-01-13 23:33:00,57.1,54.7,29.93,SE,135,0.0,0.0,92,0.00,,,0.01,WUHU216HW,2013-01-14 04:33:00,
2013-01-13 23:38:00,57.1,54.7,29.93,SSW,203,0.4,0.4,92,0.00,,,0.01,WUHU216HW,2013-01-14 04:38:00,
2013-01-13 23:43:00,57.2,55.3,29.94,SSW,203,1.1,1.1,93,0.00,,,0.01,WUHU216HW,2013-01-14 04:43:00,
2013-01-13 23:48:00,57.2,54.9,29.93,SSW,203,0.2,1.1,92,0.00,,,0.01,WUHU216HW,2013-01-14 04:48:00,
2013-01-13 23:53:00,57.2,55.3,29.94,SSW,203,0.0,1.1,93,0.00,,,0.01,WUHU216HW,2013-01-14 04:53:00,
2013-01-13 23:58:00,57.2,55.3,29.94,SSW,203,0.0,0.4,93,0.00,,,0.01,WUHU216HW,2013-01-14 04:58:00,